[[{"header":{"parameterUnit":"m.s-1","parameterCategory":1,"la1":30.2991,"la2":30.254,"lo1":-89.0895,"lo2":-89.0444,"dy":0.0017,"dx":0.0017,"nx":28,"ny":28,"refTime":"2023-11-22T03:00:00:Z","depth":0,"parameterNumber":2,"parameterNumberName":"U-component_of_WINDS"},"data":[0,0,0,0,0,0,0,0,0,0,0,0,0,0,0,0,0,0,0,0,0,0,0,0,0,0,0,0,0,0,0,0,0,0,0,0,0,0,0,0,0,0,0,0,0,0,0,0,0,0,0,0,0,0,0,0,0,0,-2.2854,-2.2855,0,-2.2906,-2.2906,-2.2907,-2.2791,-2.2787,-2.2784,-2.278,-2.2834,-2.2839,-2.2844,0,0,0,0,0,0,0,0,0,0,0,0,0,-2.2656,-2.2661,-2.2854,-2.2855,-2.2856,-2.2905,-2.2906,-2.2907,-2.2792,-2.2787,-2.2783,-2.2779,-2.2833,-2.2838,-2.2844,0,0,0,0,0,0,0,0,0,0,0,0,0,-2.2729,-2.2662,-2.2854,-2.2804,-2.28,-2.2905,-2.2906,-2.2907,-2.2793,-2.2787,-2.2782,-2.2776,-2.2831,-2.2838,-2.2845,-2.3002,0,0,-2.2868,-2.2871,0,0,0,0,0,0,0,0,-2.2725,-2.2736,-2.2811,-2.2808,-2.2803,-2.2836,-2.2856,-2.2939,-2.2794,-2.2796,-2.278,-2.2774,-2.284,-2.2846,-2.2868,-2.3004,-2.3006,-2.2868,-2.2873,-2.2876,-2.2878,0,0,0,0,0,0,0,-2.272,-2.2733,-2.2874,-2.2812,-2.2808,-2.2779,-2.2783,-2.2871,-2.2848,-2.2795,-2.2787,-2.2794,-2.2836,-2.2861,-2.2868,-2.3007,-2.2868,-2.2875,-2.2879,-2.2882,-2.3273,-2.3278,0,0,0,0,0,0,-2.2721,-2.273,-2.2873,-2.2876,-2.2749,-2.2787,-2.2792,-2.2831,-2.2847,-2.2844,-2.2799,-2.2789,-2.2851,-2.286,-2.287,-2.3053,-2.2876,-2.2883,-2.2887,-2.3267,-2.3274,-2.328,0,0,0,0,0,0,-2.2717,-2.2735,-2.2871,-2.2801,-2.2816,-2.2796,-2.2842,-2.2835,-2.286,-2.285,-2.2845,-2.2828,-2.2847,-2.2859,-2.2969,-2.3053,-2.2886,-2.2893,-2.326,-2.3269,-2.3277,-2.3422,0,0,0,0,0,0,-2.2712,-2.2734,-2.2794,-2.2803,-2.282,-2.297,-2.2847,-2.284,-2.2872,-2.2859,-2.2876,-2.2874,-2.2844,-2.2959,-2.2976,-2.306,-2.2898,-2.3252,-2.3264,-2.3274,-2.3409,-2.3434,-2.3456,0,0,0,0,0,-2.2705,-2.2833,-2.2798,-2.2816,-2.2894,-2.2975,-2.2985,-2.2948,-2.288,-2.2939,-2.2932,-2.2873,-2.3041,-2.2971,-2.299,-2.3077,-2.3247,-2.326,-2.3273,-2.3399,-2.3429,-2.3455,0,0,0,0,0,0,-2.2836,-2.2834,-2.2794,-2.2929,-2.2953,-2.2956,-2.303,-2.2982,-2.3026,-2.3012,-2.2964,-2.2969,-2.3088,-2.3093,-2.3015,-2.3228,-2.3132,-2.315,-2.3221,-2.325,-2.3273,-2.3269,-2.2904,0,0,0,0,0,-2.288,-2.2946,-2.2941,-2.306,-2.3074,-2.305,-2.3084,-2.3053,-2.3076,-2.3086,-2.3088,-2.3113,-2.3171,-2.321,-2.3263,-2.3409,-2.341,-2.3478,-2.3501,-2.352,-2.3537,-2.3612,-2.3642,-2.3324,-2.3324,-2.3324,0,0,-2.2973,-2.298,-2.3025,-2.3086,-2.3101,-2.3171,-2.306,-2.3138,-2.3189,-2.3098,-2.3202,-2.3204,-2.3228,-2.3357,-2.3413,-2.3365,-2.3624,-2.3537,-2.3553,-2.3559,-2.3629,-2.3659,-2.3686,-2.3334,-2.3332,-2.333,0,0,-2.3177,-2.3189,-2.3289,-2.3306,-2.333,-2.3312,-2.3337,-2.3346,-2.3344,-2.3447,-2.3379,-2.3439,-2.354,-2.356,-2.3584,-2.3793,-2.3739,-2.3811,-2.3934,-2.4008,-2.4033,-2.4055,-2.4129,-2.4156,-2.3827,-2.3828,-2.3828,0,-2.329,-2.3391,-2.3347,-2.3429,-2.3458,-2.3378,-2.3478,-2.3497,-2.3537,-2.3559,-2.3504,-2.3628,-2.3639,-2.377,-2.3821,-2.3842,-2.3868,-2.381,-2.4033,-2.4055,-2.4074,-2.4144,-2.4173,-2.3836,-2.3835,-2.3834,-2.3834,0,-2.3528,-2.3599,-2.3677,-2.3717,-2.3754,-2.3846,-2.3814,-2.3857,-2.3822,-2.3811,-2.3916,-2.3926,-2.3978,-2.4007,-2.3974,-2.4133,-2.4102,-2.4041,-2.3943,-2.4114,-2.4179,-2.4206,-2.3849,-2.3846,-2.3843,-2.3841,0,0,-2.3818,-2.383,-2.386,-2.3876,-2.3895,-2.3949,-2.4036,-2.4087,-2.4124,-2.4154,-2.4226,-2.4312,-2.4255,-2.4281,-2.425,-2.4315,-2.4479,-2.4245,-2.4245,-2.4288,-2.4653,-2.4699,-2.4731,-2.4443,-2.4448,-2.4452,-2.4651,0,-2.402,-2.4169,-2.413,-2.4279,-2.4343,-2.4266,-2.4342,-2.4362,-2.4353,-2.4406,-2.4395,-2.4457,-2.4377,-2.4393,-2.4454,-2.4446,-2.4551,-2.4431,-2.4509,-2.4512,-2.4505,-2.4765,-2.4815,-2.5003,-2.4676,-2.468,-2.4684,0,-2.4276,-2.4314,-2.4469,-2.4475,-2.4501,-2.457,-2.4612,-2.4664,-2.4684,-2.4672,-2.4701,-2.4656,-2.4741,-2.4641,-2.4757,-2.4676,-2.4705,-2.4706,-2.4712,-2.4719,-2.4609,-2.4779,-2.5062,-2.509,-2.4723,-2.472,-2.4717,0,-2.4472,-2.4562,-2.4665,-2.4682,-2.4692,-2.4742,-2.4749,-2.4763,-2.4795,-2.4832,-2.4853,-2.4899,-2.4925,-2.4962,-2.493,-2.4861,-2.5051,-2.4949,-2.5043,-2.5044,-2.5088,-2.5086,-2.538,-2.5106,-2.5106,-2.5105,-2.5105,0,-2.4701,-2.4799,-2.4753,-2.4818,-2.4924,-2.4878,-2.4984,-2.4982,-2.4995,-2.5057,-2.4993,-2.5052,-2.5006,-2.5061,-2.5036,-2.5135,-2.5148,-2.514,-2.5133,-2.5146,-2.5147,-2.5165,-2.5152,-2.5113,-2.5111,-2.511,-2.5108,0,-2.4939,-2.4912,-2.502,-2.502,-2.5022,-2.5101,-2.5101,-2.516,-2.5145,-2.5223,-2.5239,-2.5216,-2.5277,-2.5248,-2.5313,-2.5296,-2.5423,-2.5398,-2.5417,-2.541,-2.5506,-2.5498,-2.5822,-2.5862,-2.5564,-2.5566,-2.5569,0,-2.5088,-2.5161,-2.5168,-2.5204,-2.5215,-2.5275,-2.5306,-2.5263,-2.5299,-2.5326,-2.5382,-2.5437,-2.5479,-2.558,-2.5569,-2.5618,-2.5593,-2.5703,-2.56,-2.5611,-2.5594,-2.559,-2.5597,-2.5725,-2.5728,-2.5731,-2.5733,0,-2.5354,-2.5337,-2.5385,-2.5429,-2.5469,-2.5502,-2.5529,-2.5562,-2.5519,-2.5563,-2.5624,-2.5657,-2.5721,-2.5777,-2.5818,-2.5824,-2.5772,-2.5766,-2.579,-2.5805,-2.5812,-2.5809,-2.5474,-2.5759,-2.5756,-2.5754,-2.5753,-2.5752,-2.5552,-2.5612,-2.5626,-2.5682,-2.5697,-2.5724,-2.5778,-2.5769,-2.5819,-2.5868,-2.5839,-2.5911,-2.5927,-2.5977,-2.599,-2.6045,-2.6001,-2.6036,-2.6045,-2.6055,-2.6067,-2.5803,-2.6052,-2.6051,-2.6051,-2.605,-2.6049,0,-2.5814,-2.5819,-2.5871,-2.591,-2.5953,-2.5899,-2.5925,-2.5965,-2.6029,-2.6048,-2.609,-2.6159,-2.6212,-2.6204,-2.6252,-2.6298,-2.6275,-2.6312,-2.6308,-2.631,-2.6104,-2.6078,-2.6329,-2.6329,-2.6329,-2.6329,-2.6329,-2.6329,-2.5956,-2.6056,-2.604,-2.6145,-2.6149,-2.6218,-2.6238,-2.6261,-2.6276,-2.6356,-2.6399,-2.6393,-2.6401,-2.6449,-2.6494,-2.649,-2.6511,-2.6557,-2.6545,-2.6353,-2.6325,-2.6298,-2.6274,-2.6562,-2.6562,-2.6746,-2.6747,-2.6749]},{"header":{"parameterUnit":"m.s-1","parameterCategory":1,"la1":30.2991,"la2":30.254,"lo1":-89.0895,"lo2":-89.0444,"dy":0.0017,"dx":0.0017,"nx":28,"ny":28,"refTime":"2023-11-22T03:00:00:Z","depth":0,"parameterNumber":3,"parameterNumberName":"V-component_of_WINDS"},"data":[0,0,0,0,0,0,0,0,0,0,0,0,0,0,0,0,0,0,0,0,0,0,0,0,0,0,0,0,0,0,0,0,0,0,0,0,0,0,0,0,0,0,0,0,0,0,0,0,0,0,0,0,0,0,0,0,0,0,-3.6655,-3.6656,0,-3.6774,-3.6775,-3.6776,-3.675,-3.6748,-3.6746,-3.6744,-3.6863,-3.6868,-3.6873,0,0,0,0,0,0,0,0,0,0,0,0,0,-3.6402,-3.6407,-3.6655,-3.6656,-3.6658,-3.6773,-3.6775,-3.6777,-3.6751,-3.6748,-3.6745,-3.6743,-3.6861,-3.6868,-3.6874,0,0,0,0,0,0,0,0,0,0,0,0,0,-3.6516,-3.6409,-3.6655,-3.6659,-3.666,-3.6773,-3.6775,-3.6777,-3.6751,-3.6748,-3.6744,-3.6741,-3.6859,-3.6867,-3.6875,-3.699,0,0,-3.6899,-3.6902,0,0,0,0,0,0,0,0,-3.6509,-3.6525,-3.6657,-3.6659,-3.6661,-3.6744,-3.673,-3.6848,-3.6752,-3.6717,-3.6744,-3.674,-3.6826,-3.6836,-3.6866,-3.6996,-3.7001,-3.6899,-3.6904,-3.6908,-3.691,0,0,0,0,0,0,0,-3.6501,-3.652,-3.6702,-3.6659,-3.6661,-3.6654,-3.6666,-3.6752,-3.6788,-3.6719,-3.6718,-3.6732,-3.6826,-3.6858,-3.6868,-3.7002,-3.6899,-3.6906,-3.6911,-3.6914,-3.723,-3.7234,0,0,0,0,0,0,-3.6492,-3.6513,-3.6698,-3.6705,-3.6575,-3.6661,-3.6675,-3.672,-3.6787,-3.6794,-3.6735,-3.6731,-3.6846,-3.6859,-3.6873,-3.701,-3.6908,-3.6915,-3.6919,-3.7227,-3.7231,-3.7235,0,0,0,0,0,0,-3.6487,-3.6509,-3.6693,-3.6609,-3.6632,-3.6669,-3.672,-3.6725,-3.6756,-3.6799,-3.6805,-3.6761,-3.6844,-3.6861,-3.6961,-3.7014,-3.6918,-3.6926,-3.7222,-3.7228,-3.7233,-3.7288,0,0,0,0,0,0,-3.648,-3.6507,-3.6552,-3.661,-3.6636,-3.6781,-3.6724,-3.6729,-3.677,-3.6766,-3.6826,-3.6832,-3.6843,-3.6949,-3.6968,-3.7023,-3.6932,-3.7218,-3.7225,-3.7231,-3.7282,-3.7295,-3.7306,0,0,0,0,0,-3.6471,-3.6563,-3.6555,-3.6577,-3.6694,-3.6784,-3.6799,-3.681,-3.6775,-3.682,-3.6847,-3.683,-3.7005,-3.6959,-3.6981,-3.7039,-3.7214,-3.7223,-3.7231,-3.7276,-3.7292,-3.7306,0,0,0,0,0,0,-3.651,-3.6571,-3.6562,-3.6676,-3.6725,-3.6779,-3.6836,-3.6827,-3.6886,-3.6879,-3.689,-3.6904,-3.7005,-3.7032,-3.698,-3.7153,-3.7105,-3.7118,-3.7132,-3.7147,-3.7159,-3.715,-3.6938,0,0,0,0,0,-3.6532,-3.6601,-3.665,-3.6745,-3.677,-3.6799,-3.6839,-3.6843,-3.6894,-3.6914,-3.6949,-3.6998,-3.7064,-3.7107,-3.717,-3.7286,-3.7297,-3.7336,-3.7348,-3.7358,-3.7369,-3.743,-3.7447,-3.7262,-3.7262,-3.7262,0,0,-3.6578,-3.6619,-3.6662,-3.6754,-3.6793,-3.6863,-3.6817,-3.6893,-3.6945,-3.6926,-3.7021,-3.7048,-3.7104,-3.7211,-3.726,-3.7237,-3.7423,-3.7369,-3.7376,-3.7382,-3.744,-3.7458,-3.7473,-3.7268,-3.7267,-3.7266,0,0,-3.6697,-3.6736,-3.6819,-3.6859,-3.6918,-3.6936,-3.6956,-3.7011,-3.7029,-3.7125,-3.7112,-3.7173,-3.7287,-3.7326,-3.7361,-3.7494,-3.748,-3.7514,-3.7578,-3.7637,-3.7652,-3.7664,-3.771,-3.7727,-3.7525,-3.7525,-3.7525,0,-3.6746,-3.6852,-3.6863,-3.6941,-3.6981,-3.6967,-3.705,-3.7088,-3.7164,-3.7191,-3.7165,-3.7306,-3.7343,-3.7458,-3.749,-3.752,-3.7541,-3.7507,-3.7649,-3.7662,-3.7674,-3.7718,-3.7735,-3.7529,-3.7528,-3.7528,-3.7527,0,-3.6909,-3.6983,-3.7043,-3.7117,-3.7164,-3.7244,-3.7265,-3.7311,-3.7311,-3.7332,-3.7429,-3.7472,-3.7543,-3.7571,-3.7572,-3.7686,-3.767,-3.7646,-3.7597,-3.7695,-3.7736,-3.7753,-3.7534,-3.7533,-3.7531,-3.7531,0,0,-3.7057,-3.7135,-3.7157,-3.719,-3.7253,-3.7309,-3.7388,-3.7458,-3.7496,-3.7549,-3.7614,-3.771,-3.7688,-3.7728,-3.7733,-3.7785,-3.7885,-3.7754,-3.7756,-3.7776,-3.8012,-3.8029,-3.8048,-3.7877,-3.788,-3.7883,-3.8007,0,-3.7181,-3.732,-3.7332,-3.7457,-3.7523,-3.7511,-3.7579,-3.7625,-3.7646,-3.7705,-3.7727,-3.7795,-3.7761,-3.7785,-3.7836,-3.7862,-3.7933,-3.7854,-3.7936,-3.7939,-3.7922,-3.807,-3.8089,-3.8204,-3.8023,-3.8026,-3.8028,0,-3.7344,-3.7402,-3.7534,-3.7586,-3.7614,-3.7676,-3.774,-3.7797,-3.7847,-3.7859,-3.7903,-3.79,-3.7979,-3.7928,-3.8037,-3.7982,-3.8017,-3.8035,-3.8039,-3.8047,-3.7989,-3.808,-3.8241,-3.8258,-3.8054,-3.8052,-3.805,0,-3.7437,-3.7547,-3.764,-3.7669,-3.7733,-3.7775,-3.7804,-3.7851,-3.7892,-3.7948,-3.7974,-3.8038,-3.8073,-3.8122,-3.8136,-3.8098,-3.8243,-3.8194,-3.8254,-3.8253,-3.8285,-3.8282,-3.8452,-3.8309,-3.8308,-3.8308,-3.8308,0,-3.7574,-3.7654,-3.7682,-3.7739,-3.7829,-3.784,-3.7928,-3.7954,-3.7996,-3.8057,-3.805,-3.8106,-3.8122,-3.8182,-3.8193,-3.828,-3.8296,-3.8307,-3.8309,-3.8307,-3.8306,-3.8329,-3.8321,-3.8313,-3.8312,-3.8311,-3.831,0,-3.7692,-3.7714,-3.7814,-3.7866,-3.7881,-3.7945,-3.7989,-3.8043,-3.8062,-3.8139,-3.8158,-3.8188,-3.8258,-3.8277,-3.836,-3.8368,-3.847,-3.8465,-3.8453,-3.8452,-3.8511,-3.8505,-3.8701,-3.8726,-3.8567,-3.8569,-3.857,0,-3.7777,-3.7839,-3.7898,-3.7938,-3.7968,-3.8034,-3.8075,-3.8088,-3.8131,-3.8193,-3.8239,-3.8308,-3.8363,-3.8474,-3.8503,-3.8566,-3.8562,-3.8626,-3.8571,-3.8567,-3.8561,-3.8557,-3.8562,-3.8636,-3.8638,-3.8639,-3.8641,0,-3.7926,-3.7933,-3.7994,-3.8058,-3.8107,-3.8158,-3.8207,-3.824,-3.826,-3.8309,-3.838,-3.8423,-3.8507,-3.8575,-3.8638,-3.8666,-3.8657,-3.8658,-3.8675,-3.8673,-3.8663,-3.8668,-3.848,-3.8653,-3.8652,-3.8651,-3.865,-3.865,-3.803,-3.8083,-3.8132,-3.8199,-3.8237,-3.8283,-3.8336,-3.8362,-3.8421,-3.8492,-3.8496,-3.8572,-3.862,-3.8704,-3.8735,-3.8794,-3.8775,-3.88,-3.8806,-3.8812,-3.8816,-3.8654,-3.8806,-3.8806,-3.8806,-3.8805,-3.8805,0,-3.8176,-3.8207,-3.8269,-3.8337,-3.8389,-3.8376,-3.8429,-3.8473,-3.8541,-3.8586,-3.8641,-3.8721,-3.8787,-3.882,-3.8885,-3.8926,-3.8923,-3.8942,-3.8938,-3.8945,-3.8831,-3.8809,-3.8943,-3.8943,-3.8943,-3.8943,-3.8943,-3.8943,-3.8259,-3.8349,-3.8362,-3.8469,-3.8499,-3.8575,-3.8606,-3.8647,-3.8683,-3.8774,-3.8828,-3.885,-3.889,-3.8957,-3.9016,-3.9024,-3.9047,-3.9069,-3.9074,-3.8967,-3.8953,-3.8939,-3.8919,-3.9074,-3.9074,-3.9183,-3.9184,-3.9185]}]]